EW7356 Weather Reports


Display with metric or nautical units.
time (UTC)temp
F
wind
direction
speed
MPH
gust
MPH
rain 1hr
in
rain 24hr
in
rain mn
in
humidity
%
barometer
mb
20260505215027 62 301 2.0 8.0 0.00 0.00 0.00 77 1005.0
20260505214540 62 269 3.0 10.0 0.00 0.00 0.00 77 1005.5
20260505214027 62 272 5.0 16.0 0.00 0.00 0.00 75 1004.8
20260505213527 62 294 4.0 23.0 0.00 0.00 0.00 75 1004.9
20260505213041 64 309 9.0 23.0 0.00 0.00 0.00 72 1005.1
20260505212530 66 5 10.0 34.0 0.00 0.00 0.00 65 1005.0
20260505212028 70 280 10.0 34.0 0.00 0.00 0.00 52 1004.8
20260505211548 76 257 10.0 34.0 0.00 0.00 0.00 39 1004.6
20260505211032 76 170 11.0 24.0 0.00 0.00 0.00 36 1003.0
20260505210529 76 175 8.0 21.0 0.00 0.00 0.00 37 1002.9
20260505210041 76 232 9.0 21.0 0.00 0.00 0.00 38 1002.9
20260505205533 76 219 6.0 24.0 0.00 0.00 0.00 39 1002.7
20260505205034 76 296 9.0 29.0 0.00 0.00 0.00 39 1002.7
20260505204539 76 229 9.0 29.0 0.00 0.00 0.00 38 1002.6
20260505204030 76 282 9.0 29.0 0.00 0.00 0.00 38 1002.7
20260505203527 77 196 10.0 22.0 0.00 0.00 0.00 37 1002.8
20260505203039 77 221 8.0 18.0 0.00 0.00 0.00 37 1002.9
20260505202527 76 193 9.0 21.0 0.00 0.00 0.00 38 1002.9
20260505202030 76 245 7.0 22.0 0.00 0.00 0.00 37 1002.9
20260505201544 76 165 10.0 22.0 0.00 0.00 0.00 37 1002.8
20260505201030 76 267 9.0 22.0 0.00 0.00 0.00 37 1003.0
20260505200532 77 213 9.0 19.0 0.00 0.00 0.00 36 1002.9
20260505200041 77 208 9.0 22.0 0.00 0.00 0.00 37 1002.9
20260505195529 77 339 10.0 22.0 0.00 0.00 0.00 36 1002.9
20260505195029 79 177 9.0 23.0 0.00 0.00 0.00 35 1003.0
20260505194542 78 197 10.0 23.0 0.00 0.00 0.00 36 1003.0
20260505194031 79 170 9.0 32.0 0.00 0.00 0.00 35 1003.1
20260505193530 78 219 12.0 32.0 0.00 0.00 0.00 37 1003.1
20260505193045 77 258 9.0 22.0 0.00 0.00 0.00 35 1003.2
20260505192530 78 287 10.0 22.0 0.00 0.00 0.00 34 1003.2
20260505192033 78 205 9.0 23.0 0.00 0.00 0.00 34 1003.1
20260505191549 79 199 12.0 23.0 0.00 0.00 0.00 34 1003.0
20260505191032 79 244 9.0 19.0 0.00 0.00 0.00 34 1003.2
20260505190529 78 205 6.0 22.0 0.00 0.00 0.00 37 1003.4
20260505190035 78 164 8.0 22.0 0.00 0.00 0.00 37 1003.6
20260505185530 77 225 5.0 24.0 0.00 0.00 0.00 36 1003.5
20260505185032 77 237 9.0 24.0 0.00 0.00 0.00 35 1003.6
20260505184543 78 259 12.0 25.0 0.00 0.00 0.00 36 1003.5
20260505184029 78 213 12.0 25.0 0.00 0.00 0.00 35 1003.6
20260505183529 78 262 9.0 21.0 0.00 0.00 0.00 36 1003.7
20260505183041 77 240 10.0 20.0 0.00 0.00 0.00 37 1003.9
20260505182529 77 170 9.0 19.0 0.00 0.00 0.00 36 1004.0
20260505182029 76 253 9.0 28.0 0.00 0.00 0.00 38 1004.1
20260505181540 76 194 8.0 28.0 0.00 0.00 0.00 37 1004.1
20260505181029 76 181 11.0 28.0 0.00 0.00 0.00 37 1004.4
20260505180529 76 230 8.0 19.0 0.00 0.00 0.00 37 1004.3
20260505180054 76 232 9.0 19.0 0.00 0.00 0.00 37 1004.4
20260505175529 76 265 10.0 19.0 0.00 0.00 0.00 37 1004.6
20260505175033 77 250 9.0 20.0 0.00 0.00 0.00 36 1004.4
20260505174605 77 263 10.0 24.0 0.00 0.00 0.00 36 1004.5
20260505174028 77 207 8.0 25.0 0.00 0.00 0.00 37 1004.7
20260505173529 77 163 12.0 25.0 0.00 0.00 0.00 36 1004.6
20260505173044 77 135 8.0 31.0 0.00 0.00 0.00 38 1004.7
20260505172531 77 295 14.0 31.0 0.00 0.00 0.00 36 1004.8
20260505172029 77 248 9.0 20.0 0.00 0.00 0.00 39 1004.9
20260505171540 77 282 5.0 20.0 0.00 0.00 0.00 39 1004.8
20260505171028 76 224 8.0 20.0 0.00 0.00 0.00 39 1004.9
20260505170527 76 300 10.0 21.0 0.00 0.00 0.00 38 1005.0
20260505170050 76 261 10.0 26.0 0.00 0.00 0.00 37 1005.1
20260505165531 76 207 12.0 26.0 0.00 0.00 0.00 39 1005.1
20260505165030 76 221 7.0 19.0 0.00 0.00 0.00 40 1005.3
20260505164543 75 248 6.0 19.0 0.00 0.00 0.00 44 1005.2
20260505164030 75 180 9.0 19.0 0.00 0.00 0.00 41 1005.5
20260505163528 75 279 4.0 14.0 0.00 0.00 0.00 44 1005.6
20260505163043 75 193 8.0 16.0 0.00 0.00 0.00 43 1005.6
20260505162529 75 202 5.0 16.0 0.00 0.00 0.00 45 1005.7
20260505162027 74 291 5.0 18.0 0.00 0.00 0.00 43 1005.8
20260505161543 74 174 5.0 18.0 0.00 0.00 0.00 44 1005.8
20260505161032 73 306 7.0 18.0 0.00 0.00 0.00 45 1005.8
20260505160528 73 167 9.0 17.0 0.00 0.00 0.00 44 1005.9
20260505153053 72 348 8.0 18.0 0.00 0.00 0.00 47 1006.9
20260505152529 72 257 9.0 18.0 0.00 0.00 0.00 48 1006.9
20260505152027 71 223 7.0 20.0 0.00 0.00 0.00 49 1007.0
20260505151546 70 152 7.0 20.0 0.00 0.00 0.00 48 1006.9
20260505151029 70 182 9.0 18.0 0.00 0.00 0.00 47 1007.0
20260505150529 70 187 10.0 18.0 0.00 0.00 0.00 47 1007.0
20260505140530 67 177 5.0 20.0 0.00 0.00 0.00 54 1007.2
20260505125029 59 233 2.0 10.0 0.00 0.00 0.00 62 1007.1
20260505124542 59 198 4.0 11.0 0.00 0.00 0.00 61 1006.9
20260505124029 59 295 5.0 11.0 0.00 0.00 0.00 61 1006.9
20260505123530 59 180 5.0 10.0 0.00 0.00 0.00 60 1007.2
20260505123058 59 205 5.0 10.0 0.00 0.00 0.00 61 1006.9
20260505122529 59 209 4.0 10.0 0.00 0.00 0.00 60 1006.9
20260505122029 59 250 5.0 10.0 0.00 0.00 0.00 60 1006.8
20260505121546 60 274 5.0 12.0 0.00 0.00 0.00 58 1007.1
20260505121030 59 245 5.0 12.0 0.00 0.00 0.00 60 1007.0
20260505120532 59 281 6.0 11.0 0.00 0.00 0.00 60 1007.3
20260505120046 58 229 5.0 10.0 0.00 0.00 0.00 60 1007.1
20260505115529 58 223 6.0 10.0 0.00 0.00 0.00 60 1007.2
20260505115030 58 241 5.0 9.0 0.00 0.00 0.00 60 1007.2
20260505114610 58 259 3.0 7.0 0.00 0.00 0.00 61 1007.3
20260505114030 57 285 2.0 7.0 0.00 0.00 0.00 62 1007.3
20260505113527 57 270 2.0 8.0 0.00 0.00 0.00 62 1007.4
20260505113045 57 305 1.0 8.0 0.00 0.00 0.00 63 1007.4
20260505112529 56 275 4.0 8.0 0.00 0.00 0.00 64 1007.2
20260505112029 55 268 1.0 5.0 0.00 0.00 0.00 67 1007.1
20260505111606 54 0 0.0 5.0 0.00 0.00 0.00 69 1007.0
20260505111030 53 344 1.0 5.0 0.00 0.00 0.00 68 1006.8
20260505110529 53 0 0.0 0.0 0.00 0.00 0.00 70 1006.8
20260505102032 51 266 0.0 1.0 0.00 0.00 0.00 70 1006.8
20260505101536 51 266 0.0 1.0 0.00 0.00 0.00 69 1006.9
20260505101030 52 0 0.0 2.0 0.00 0.00 0.00 69 1006.7
20260505100530 52 0 0.0 2.0 0.00 0.00 0.00 68 1006.7
20260505100040 52 266 0.0 2.0 0.00 0.00 0.00 67 1006.8
20260505095532 53 266 0.0 3.0 0.00 0.00 0.00 66 1006.7
20260505095029 53 268 0.0 3.0 0.00 0.00 0.00 65 1006.8
20260505094545 53 223 1.0 4.0 0.00 0.00 0.00 65 1006.8
20260505094031 54 0 1.0 8.0 0.00 0.00 0.00 64 1006.8
20260505093529 54 259 1.0 8.0 0.00 0.00 0.00 64 1006.8
20260505093040 54 294 1.0 7.0 0.00 0.00 0.00 64 1006.9
20260505092530 54 0 2.0 7.0 0.00 0.00 0.00 64 1007.0
20260505092030 54 268 2.0 8.0 0.00 0.00 0.00 62 1006.9
20260505091542 55 266 3.0 10.0 0.00 0.00 0.00 62 1006.9
20260505091029 55 255 3.0 10.0 0.00 0.00 0.00 61 1007.0
20260505090530 55 250 5.0 10.0 0.00 0.00 0.00 60 1006.9
20260505090048 55 230 4.0 10.0 0.00 0.00 0.00 61 1006.9
20260505085530 55 239 4.0 10.0 0.00 0.00 0.00 61 1007.0
20260505085030 55 277 4.0 9.0 0.00 0.00 0.00 61 1007.1
20260505084538 55 292 3.0 9.0 0.00 0.00 0.00 60 1007.0
20260505084029 55 244 3.0 9.0 0.00 0.00 0.00 60 1006.9
20260505083529 55 265 3.0 9.0 0.00 0.00 0.00 60 1006.9
20260505083046 55 240 4.0 10.0 0.00 0.00 0.00 60 1007.0
20260505082529 55 271 3.0 10.0 0.00 0.00 0.00 61 1007.0
20260505082031 55 256 3.0 7.0 0.00 0.00 0.00 61 1007.2
20260505081548 55 257 2.0 8.0 0.00 0.00 0.00 61 1007.0
20260505081030 55 283 2.0 8.0 0.00 0.00 0.00 61 1007.0
20260505080529 55 276 2.0 8.0 0.00 0.00 0.00 61 1007.0
20260505080042 55 301 2.0 4.0 0.00 0.00 0.00 60 1007.2
20260505075529 55 309 1.0 5.0 0.00 0.00 0.00 59 1007.2
20260505075029 56 323 1.0 9.0 0.00 0.00 0.00 59 1007.1
20260505074543 56 290 1.0 9.0 0.00 0.00 0.00 59 1007.2
20260505074030 56 251 3.0 11.0 0.00 0.00 0.00 59 1007.2
20260505073530 56 219 3.0 11.0 0.00 0.00 0.00 58 1007.1
20260505073040 56 269 4.0 11.0 0.00 0.00 0.00 58 1007.2
20260505072532 56 209 3.0 10.0 0.00 0.00 0.00 59 1007.2
20260505072032 56 236 3.0 10.0 0.00 0.00 0.00 58 1007.3
20260505071543 56 219 4.0 10.0 0.00 0.00 0.00 58 1007.2
20260505071029 55 296 3.0 11.0 0.00 0.00 0.00 60 1007.3
20260505070530 55 166 5.0 11.0 0.00 0.00 0.00 60 1007.2
20260505070050 54 217 2.0 7.0 0.00 0.00 0.00 61 1007.3
20260505065530 55 177 2.0 7.0 0.00 0.00 0.00 61 1007.3
20260505065029 55 280 0.0 7.0 0.00 0.00 0.00 61 1007.3
20260505064555 55 0 2.0 7.0 0.00 0.00 0.00 61 1007.3
20260505064029 55 217 3.0 7.0 0.00 0.00 0.00 61 1007.5
20260505063529 54 261 2.0 7.0 0.00 0.00 0.00 62 1007.5
20260505063046 54 244 3.0 7.0 0.00 0.00 0.00 63 1007.5
20260505062530 53 234 0.0 2.0 0.00 0.00 0.00 64 1007.5
20260505062030 54 236 0.0 2.0 0.00 0.00 0.00 64 1007.6
20260505061550 54 230 0.0 3.0 0.00 0.00 0.00 63 1007.6
20260505061031 54 0 1.0 3.0 0.00 0.00 0.00 62 1007.6
20260505060529 54 296 0.0 7.0 0.00 0.00 0.00 62 1007.7
20260505060046 54 0 1.0 7.0 0.00 0.00 0.00 62 1007.7
20260505055529 54 178 1.0 5.0 0.00 0.00 0.00 62 1007.6
20260505055030 54 206 2.0 5.0 0.00 0.00 0.00 62 1007.6
20260505054553 54 274 1.0 7.0 0.00 0.00 0.00 62 1007.5
20260505054030 55 219 2.0 7.0 0.00 0.00 0.00 61 1007.6
20260505053529 55 224 2.0 7.0 0.00 0.00 0.00 61 1007.7
20260505053042 55 309 2.0 8.0 0.00 0.00 0.00 60 1007.7
20260505052529 55 213 1.0 8.0 0.00 0.00 0.00 60 1007.7
20260505052029 55 257 3.0 6.0 0.00 0.00 0.00 60 1007.8
20260505051535 55 264 2.0 8.0 0.00 0.00 0.00 59 1007.7
20260505051029 56 246 3.0 8.0 0.00 0.00 0.00 59 1007.7
20260505050533 56 229 3.0 8.0 0.00 0.00 0.00 59 1007.7
20260505041548 56 250 1.0 4.0 0.00 0.00 0.00 57 1007.4
20260505041029 56 0 0.0 3.0 0.00 0.00 0.00 56 1007.4
20260505040529 56 0 0.0 3.0 0.00 0.00 0.00 55 1007.4
20260505040039 57 317 2.0 3.0 0.00 0.00 0.00 54 1007.3
20260505035529 57 0 0.0 4.0 0.00 0.00 0.00 53 1007.3
20260505035029 58 0 0.0 11.0 0.00 0.00 0.00 52 1007.2
20260505034542 58 275 1.0 11.0 0.00 0.00 0.00 52 1007.2
20260505034029 58 264 3.0 11.0 0.00 0.00 0.00 52 1007.2
20260505033531 58 215 3.0 11.0 0.00 0.00 0.00 52 1007.1
20260505033039 58 207 2.0 13.0 0.00 0.00 0.00 52 1007.1
20260505032529 58 232 3.0 13.0 0.00 0.00 0.00 51 1007.1
20260505032033 58 285 5.0 9.0 0.00 0.00 0.00 51 1007.1
20260505031538 58 286 2.0 11.0 0.00 0.00 0.00 51 1007.1
20260505031029 59 210 5.0 12.0 0.00 0.00 0.00 51 1007.0
20260505030530 59 207 4.0 13.0 0.00 0.00 0.00 50 1007.0
20260505030040 59 206 5.0 13.0 0.00 0.00 0.00 49 1006.9
20260505025530 59 205 3.0 16.0 0.00 0.00 0.00 48 1007.0
20260505025029 60 181 4.0 16.0 0.00 0.00 0.00 47 1007.1
20260505024544 60 188 4.0 13.0 0.00 0.00 0.00 46 1007.1
20260505024030 60 218 3.0 11.0 0.00 0.00 0.00 45 1007.0
20260505023530 60 224 4.0 12.0 0.00 0.00 0.00 45 1007.0
20260505023047 60 155 5.0 12.0 0.00 0.00 0.00 45 1007.0
20260505022532 61 222 4.0 12.0 0.00 0.00 0.00 44 1007.0
20260505022031 61 194 3.0 12.0 0.00 0.00 0.00 43 1007.0
20260505021545 61 148 3.0 10.0 0.00 0.00 0.00 43 1007.0
20260505021030 61 232 3.0 14.0 0.00 0.00 0.00 43 1006.9
20260505020529 61 259 6.0 14.0 0.00 0.00 0.00 44 1006.8
20260505020040 61 234 4.0 10.0 0.00 0.00 0.00 44 1006.8
20260505015530 61 178 3.0 10.0 0.00 0.00 0.00 45 1006.9
20260505015033 61 259 4.0 10.0 0.00 0.00 0.00 44 1006.8
20260505014543 60 187 3.0 12.0 0.00 0.00 0.00 45 1006.9
20260505014030 60 203 3.0 13.0 0.00 0.00 0.00 45 1006.9
20260505013532 60 236 4.0 13.0 0.00 0.00 0.00 46 1006.9
20260505013034 60 234 2.0 11.0 0.00 0.00 0.00 45 1006.8
20260505012530 60 229 3.0 11.0 0.00 0.00 0.00 45 1006.8
20260505012030 60 240 2.0 10.0 0.00 0.00 0.00 46 1006.8
20260505011543 60 211 3.0 10.0 0.00 0.00 0.00 46 1006.8
20260505011029 60 251 2.0 8.0 0.00 0.00 0.00 47 1006.8
20260505010529 60 189 2.0 8.0 0.00 0.00 0.00 47 1006.8
20260505010043 59 273 3.0 8.0 0.00 0.00 0.00 47 1006.7
20260505005530 59 241 1.0 5.0 0.00 0.00 0.00 47 1006.7
20260505005030 59 196 1.0 8.0 0.00 0.00 0.00 47 1006.7
20260505004540 59 208 1.0 8.0 0.00 0.00 0.00 47 1006.6
20260505004029 59 242 2.0 8.0 0.00 0.00 0.00 49 1006.5
20260505003530 59 194 1.0 4.0 0.00 0.00 0.00 48 1006.5
20260505003039 60 199 1.0 4.0 0.00 0.00 0.00 47 1006.4
20260505002533 60 209 0.0 2.0 0.00 0.00 0.00 46 1006.3
20260505002029 61 0 0.0 2.0 0.00 0.00 0.00 45 1006.2
20260505001546 61 209 0.0 3.0 0.00 0.00 0.00 44 1006.1
20260505001029 61 0 0.0 4.0 0.00 0.00 0.00 44 1006.2
20260505000529 62 209 1.0 4.0 0.00 0.00 0.00 44 1006.0
20260505000052 62 192 1.0 5.0 0.00 0.00 0.00 43 1006.0
20260504235530 62 230 0.0 9.0 0.00 0.00 0.00 43 1005.8
20260504235030 63 192 2.0 9.0 0.00 0.00 0.00 42 1005.7
20260504234538 63 0 3.0 7.0 0.00 0.00 0.00 42 1005.6
20260504234029 63 192 3.0 7.0 0.00 0.00 0.00 41 1005.6
20260504233529 63 251 4.0 9.0 0.00 0.00 0.00 41 1005.6
20260504233038 63 212 3.0 9.0 0.00 0.00 0.00 41 1005.4
20260504232530 63 184 3.0 9.0 0.00 0.00 0.00 41 1005.4
20260504232031 64 267 3.0 9.0 0.00 0.00 0.00 40 1005.3
20260504231553 64 229 3.0 12.0 0.00 0.00 0.00 40 1005.2
20260504231031 64 262 3.0 12.0 0.00 0.00 0.00 40 1005.0
20260504230530 64 282 6.0 12.0 0.00 0.00 0.00 39 1005.0
20260504230035 65 246 4.0 9.0 0.00 0.00 0.00 39 1005.0
20260504225531 65 227 4.0 21.0 0.00 0.00 0.00 39 1005.0
20260504225029 65 265 9.0 21.0 0.00 0.00 0.00 38 1004.9
20260504224539 65 240 8.0 19.0 0.00 0.00 0.00 37 1004.9
20260504224032 66 260 6.0 18.0 0.00 0.00 0.00 37 1004.9
20260504223534 66 281 9.0 17.0 0.00 0.00 0.00 37 1004.8
20260504223042 66 273 5.0 12.0 0.00 0.00 0.00 38 1004.8
20260504222530 66 265 6.0 16.0 0.00 0.00 0.00 37 1004.8
20260504222029 66 224 7.0 16.0 0.00 0.00 0.00 37 1004.8
20260504221545 66 279 6.0 14.0 0.00 0.00 0.00 37 1004.6
20260504221029 66 234 7.0 16.0 0.00 0.00 0.00 37 1004.6
20260504220529 66 238 7.0 16.0 0.00 0.00 0.00 36 1004.5
20260504220039 66 271 5.0 21.0 0.00 0.00 0.00 36 1004.5
20260504215529 66 248 8.0 21.0 0.00 0.00 0.00 36 1004.7